Regional Weather Roundup
Issued by NWS Goodland, KS

Home | Current Version | Previous Version | Text Only | Print | Product List | Glossary Off
Versions: 1 2 3 4 5 6 7 8 9 10 11 12 13 14 15 16 17 18 19 20 21 22 23 24 25 26 27 28 29 30 31 32 33 34 35 36 37 38 39 40 41 42 43 44 45 46 47 48 49 50

000
ASUS43 KGLD 050659
RWRGLD

GOODLAND FORECAST AREA HOURLY WEATHER ROUNDUP
NATIONAL WEATHER SERVICE GOODLAND KS
1200 AM MST MON DEC 05 2016

...OFFICIAL OBSERVATIONS...

CITY           SKY/WX    TMP DP  RH WIND       PRES   REMARKS
GOODLAND KS    CLOUDY    32  16  51 S16       29.70F
HILL CITY KS   CLEAR     38  24  57 SW13      29.80F
IMPERIAL NEB   CLOUDY    34  15  46 S12       29.69F
MCCOOK NEB     CLOUDY    37  20  50 SW9       29.73F
AKRON CO       CLOUDY    40  13  33 SW16      29.68F
BURLINGTON CO  CLOUDY    30  14  51 S14       29.69F WCI  19
LIMON CO       CLOUDY    16  10  77 NW6       29.72F
$$

...UNOFFICIAL OBSERVATIONS...

CITY           SKY/WX    TMP DP  RH WIND       PRES   REMARKS
COLBY KS       CLEAR     34  23  64 S12       29.75F
LENORA KS        N/A     37  32  82 MISG        N/A
NORTON KS      CLEAR     36  19  51 S10       29.76F
SHARON SPRINGS   N/A     29  19  64 S15         N/A  WCI  18
TRENTON NEB      N/A     36  32  85 SW5         N/A
KIT CARSON CO    N/A     22  11  63 CALM        N/A
YUMA CO        FAIR      34  14  44 SW10      29.66F
$$




USA.gov is the U.S. government's official web portal to all federal, state and local government web resources and services.